• In Austria
  • List of Countries
  • For 7 days
  • Water Temperature
  • Satellite Maps
  • Weather Map
  • News
  • Weather Widgets
  • user-avatar
    Login

    Hourly Weather Struzyny

    Today, 20 September, Thursday

    Time Temperature Precipitation Wind Pressure Humidity
    00:00 +20°C° 0.1 mm 2 mps 757 mmHg 71%
    01:00 +21°C° 0 mm 3 mps 756 mmHg 66%
    02:00 +20°C° 0 mm 2 mps 756 mmHg 69%
    03:00 +20°C° 0 mm 2 mps 756 mmHg 71%
    04:00 +19°C° 0 mm 2 mps 756 mmHg 74%
    05:00 +19°C° 0 mm 2 mps 757 mmHg 74%
    06:00 +19°C° 0 mm 2 mps 757 mmHg 74%
    07:00 +20°C° 0 mm 2 mps 757 mmHg 71%
    08:00 +21°C° 0 mm 2 mps 757 mmHg 65%
    09:00 +24°C° 0 mm 2 mps 757 mmHg 59%
    10:00 +26°C° 0 mm 2 mps 757 mmHg 54%
    11:00 +27°C° 0 mm 3 mps 757 mmHg 50%
    12:00 +28°C° 0 mm 3 mps 756 mmHg 47%
    13:00 +30°C° 0 mm 4 mps 756 mmHg 44%
    14:00 +30°C° 0 mm 4 mps 756 mmHg 44%
    15:00 +30°C° 0 mm 3 mps 755 mmHg 44%
    16:00 +30°C° 0 mm 3 mps 755 mmHg 44%
    17:00 +28°C° 0 mm 3 mps 755 mmHg 49%
    18:00 +26°C° 0 mm 2 mps 755 mmHg 55%
    19:00 +24°C° 0 mm 1 mps 755 mmHg 60%
    20:00 +24°C° 0 mm 1 mps 755 mmHg 62%
    21:00 +23°C° 0 mm 2 mps 754 mmHg 63%
    22:00 +23°C° 0 mm 2 mps 754 mmHg 65%
    23:00 +21°C° 0 mm 2 mps 754 mmHg 66%

    Tomorrow, 21 September, Friday

    Time Temperature Precipitation Wind Pressure Humidity
    00:00 +21°C° 0 mm 2 mps 754 mmHg 67%
    01:00 +21°C° 0 mm 3 mps 753 mmHg 68%
    02:00 +20°C° 0 mm 3 mps 753 mmHg 69%
    03:00 +20°C° 0 mm 3 mps 753 mmHg 69%
    04:00 +20°C° 0 mm 3 mps 752 mmHg 69%
    05:00 +20°C° 0 mm 3 mps 752 mmHg 68%
    06:00 +20°C° 0 mm 4 mps 752 mmHg 67%
    07:00 +21°C° 0 mm 4 mps 751 mmHg 65%
    08:00 +23°C° 0 mm 5 mps 751 mmHg 58%
    09:00 +26°C° 0 mm 5 mps 750 mmHg 51%
    10:00 +28°C° 0 mm 6 mps 750 mmHg 45%
    11:00 +29°C° 0 mm 6 mps 749 mmHg 40%
    12:00 +30°C° 0 mm 7 mps 748 mmHg 35%
    13:00 +32°C° 0 mm 7 mps 747 mmHg 31%
    14:00 +32°C° 0 mm 7 mps 747 mmHg 33%
    15:00 +30°C° 0 mm 6 mps 747 mmHg 35%
    16:00 +30°C° 0 mm 6 mps 747 mmHg 37%
    17:00 +26°C° 0.2 mm 6 mps 747 mmHg 48%
    18:00 +21°C° 0.2 mm 7 mps 748 mmHg 59%
    19:00 +16°C° 0.2 mm 7 mps 749 mmHg 70%
    20:00 +16°C° 0.2 mm 6 mps 750 mmHg 69%
    21:00 +15°C° 0.2 mm 5 mps 751 mmHg 67%
    22:00 +14°C° 0.2 mm 4 mps 752 mmHg 66%
    23:00 +13°C° 0 mm 5 mps 753 mmHg 65%

    Day after tomorrow, 22 September, Saturday

    Time Temperature Precipitation Wind Pressure Humidity
    00:00 +13°C° 0 mm 5 mps 753 mmHg 63%
    01:00 +12°C° 0 mm 5 mps 754 mmHg 62%
    02:00 +10°C° 0 mm 5 mps 754 mmHg 62%
    03:00 +10°C° 0 mm 5 mps 754 mmHg 61%
    04:00 +10°C° 0 mm 5 mps 755 mmHg 61%
    05:00 +10°C° 0 mm 5 mps 755 mmHg 61%
    06:00 +10°C° 0 mm 5 mps 755 mmHg 62%
    07:00 +10°C° 0 mm 6 mps 756 mmHg 62%
    08:00 +13°C° 0 mm 6 mps 756 mmHg 58%
    09:00 +14°C° 0 mm 6 mps 756 mmHg 54%
    10:00 +15°C° 0 mm 6 mps 756 mmHg 51%
    11:00 +16°C° 0.1 mm 7 mps 756 mmHg 48%
    12:00 +17°C° 0.1 mm 7 mps 756 mmHg 46%
    13:00 +17°C° 0.1 mm 7 mps 756 mmHg 44%
    14:00 +17°C° 0.2 mm 7 mps 756 mmHg 46%
    15:00 +16°C° 0.2 mm 7 mps 756 mmHg 49%
    16:00 +16°C° 0.2 mm 6 mps 756 mmHg 51%
    17:00 +15°C° 0.1 mm 6 mps 756 mmHg 55%
    18:00 +14°C° 0.1 mm 5 mps 756 mmHg 58%
    19:00 +13°C° 0.1 mm 4 mps 756 mmHg 61%
    20:00 +13°C° 0 mm 4 mps 757 mmHg 61%
    21:00 +13°C° 0 mm 4 mps 757 mmHg 61%
    22:00 +13°C° 0 mm 4 mps 757 mmHg 61%
    23:00 +12°C° 0 mm 4 mps 757 mmHg 63%

    23 September, Sunday

    Time Temperature Precipitation Wind Pressure Humidity
    00:00 +12°C° 0 mm 3 mps 757 mmHg 64%
    01:00 +11°C° 0 mm 3 mps 757 mmHg 65%
    02:00 +11°C° 0 mm 3 mps 756 mmHg 66%
    03:00 +11°C° 0 mm 3 mps 756 mmHg 66%
    04:00 +11°C° 0 mm 3 mps 756 mmHg 67%
    05:00 +11°C° 0.1 mm 3 mps 756 mmHg 70%
    06:00 +11°C° 0.1 mm 3 mps 755 mmHg 72%
    07:00 +11°C° 0.1 mm 3 mps 755 mmHg 75%
    08:00 +11°C° 0.2 mm 3 mps 755 mmHg 75%
    09:00 +12°C° 0.2 mm 3 mps 754 mmHg 75%
    10:00 +12°C° 0.2 mm 3 mps 754 mmHg 75%
    11:00 +12°C° 0.6 mm 3 mps 753 mmHg 78%
    12:00 +12°C° 0.6 mm 3 mps 751 mmHg 80%
    13:00 +12°C° 0.6 mm 3 mps 750 mmHg 83%
    14:00 +12°C° 1.4 mm 4 mps 749 mmHg 85%
    15:00 +12°C° 1.4 mm 4 mps 747 mmHg 87%
    16:00 +12°C° 1.4 mm 4 mps 746 mmHg 89%
    17:00 +13°C° 2.4 mm 5 mps 745 mmHg 90%
    18:00 +15°C° 2.4 mm 6 mps 743 mmHg 90%
    19:00 +16°C° 2.4 mm 7 mps 742 mmHg 90%
    20:00 +16°C° 3.3 mm 7 mps 741 mmHg 90%
    21:00 +16°C° 3.3 mm 7 mps 741 mmHg 90%
    22:00 +16°C° 3.3 mm 6 mps 741 mmHg 91%
    23:00 +14°C° 0.6 mm 6 mps 741 mmHg 90%

    24 September, Monday

    Time Temperature Precipitation Wind Pressure Humidity
    00:00 +12°C° 0.6 mm 7 mps 742 mmHg 89%
    01:00 +10°C° 0.6 mm 7 mps 742 mmHg 89%
    02:00 +10°C° 0.2 mm 7 mps 744 mmHg 86%
    03:00 +9°C° 0.2 mm 8 mps 746 mmHg 83%
    04:00 +9°C° 0.2 mm 8 mps 748 mmHg 81%
    05:00 +9°C° 0 mm 8 mps 749 mmHg 80%
    06:00 +9°C° 0 mm 8 mps 751 mmHg 78%
    07:00 +8°C° 0 mm 7 mps 752 mmHg 77%
    08:00 +9°C° 0.1 mm 8 mps 753 mmHg 71%
    09:00 +10°C° 0.1 mm 8 mps 754 mmHg 65%
    10:00 +11°C° 0.1 mm 9 mps 755 mmHg 59%
    11:00 +12°C° 0.4 mm 9 mps 756 mmHg 59%
    12:00 +12°C° 0.4 mm 9 mps 756 mmHg 58%
    13:00 +12°C° 0.4 mm 8 mps 757 mmHg 57%
    14:00 +12°C° 0.3 mm 8 mps 758 mmHg 58%
    15:00 +11°C° 0.3 mm 7 mps 759 mmHg 59%
    16:00 +11°C° 0.3 mm 6 mps 760 mmHg 59%
    17:00 +10°C° 0 mm 6 mps 761 mmHg 62%
    18:00 +9°C° 0 mm 5 mps 761 mmHg 64%
    19:00 +8°C° 0 mm 4 mps 762 mmHg 67%
    20:00 +8°C° 0 mm 4 mps 763 mmHg 67%
    21:00 +8°C° 0 mm 4 mps 763 mmHg 67%
    22:00 +7°C° 0 mm 4 mps 764 mmHg 67%
    23:00 +7°C° 0 mm 4 mps 764 mmHg 69%

    25 September, Tuesday

    Time Temperature Precipitation Wind Pressure Humidity
    00:00 +7°C° 0 mm 4 mps 764 mmHg 71%
    01:00 +7°C° 0 mm 4 mps 765 mmHg 73%
    02:00 +6°C° 0 mm 4 mps 765 mmHg 75%
    03:00 +6°C° 0 mm 4 mps 765 mmHg 77%
    04:00 +6°C° 0 mm 4 mps 765 mmHg 79%
    05:00 +6°C° 0 mm 5 mps 765 mmHg 79%
    06:00 +6°C° 0 mm 5 mps 766 mmHg 80%
    07:00 +7°C° 0 mm 5 mps 766 mmHg 80%
    08:00 +8°C° 0 mm 6 mps 766 mmHg 73%
    09:00 +10°C° 0 mm 6 mps 766 mmHg 67%
    10:00 +11°C° 0 mm 7 mps 766 mmHg 61%
    11:00 +12°C° 0 mm 7 mps 766 mmHg 61%
    12:00 +12°C° 0 mm 7 mps 765 mmHg 61%
    13:00 +12°C° 0 mm 8 mps 765 mmHg 61%
    14:00 +12°C° 0.1 mm 8 mps 764 mmHg 62%
    15:00 +13°C° 0.1 mm 8 mps 764 mmHg 62%
    16:00 +13°C° 0.1 mm 8 mps 764 mmHg 63%
    17:00 +12°C° 0.4 mm 7 mps 764 mmHg 67%
    18:00 +12°C° 0.4 mm 7 mps 764 mmHg 71%
    19:00 +11°C° 0.4 mm 7 mps 764 mmHg 75%
    20:00 +11°C° 0.6 mm 6 mps 765 mmHg 78%
    21:00 +11°C° 0.6 mm 6 mps 765 mmHg 80%
    22:00 +12°C° 0.6 mm 5 mps 765 mmHg 82%
    23:00 +10°C° 0.2 mm 5 mps 765 mmHg 83%
    Show more